www.pogodaiklimat.ru

Погода и климат >> Архив погоды >> Иран >> Abadan


ПОГОДА в Abadan

  • Прогноз погоды в Abadan
  • Монитор погоды в Abadan
  • Климат города

АРХИВ ПОГОДЫ в Abadan

Время (UTC), дата Ветер
(напр.,м/с)
 
Видим.   Явления Облачность Т
(С)
Тd
(С)
f
(%)
Тe
(С)
Тes
(С)
Комфортность P
(гПа)
Po
(гПа)
Тmin
(С)
Tmax
(С)
R
(мм)
R24
(мм)
S
(см)
00 14.02 З 4 8000 м гроза, ливневой дождь 10/6 900 м
[Cb cap As op]
+17.0 +12.3 74 +17 +17 1015.4 1014.6 0.0
03 14.02 СЗ 3 3000 м дымка 3/3 900 м
[Sc]
+14.6 +12.4 87 +14 +14 1017.7 1016.9 +14.6
06 14.02 СЗ 6 6000 м мгла {гроза, ливн. осадки} ясно +15.6 +12.0 79 +14 +17 1020.8 1019.9 2
09 14.02 СЗ 4 10 км 4/4 750 м
[Cu med, cong]
+20.0 +11.9 60 +22 +27 комфорт 1020.6 1019.8
12 14.02 СЗ 6 7000 м мгла 8/0
[Cs]
+23.3 +9.9 43 +25 +27 комфорт 1019.3 1018.5
15 14.02 С 3 10 км 3/0
[Ci fib]
+21.1 +9.7 48 +22 +22 комфорт 1020.0 1019.2 +23.7
18 14.02 З 2 10 км ясно +15.6 +9.8 68 +16 +16 1021.6 1020.7
21 14.02 СЗ 4 10 км ясно +15.1 +7.0 58 +14 +14 1021.8 1020.7
00 15.02 СЗ 3 10 км ясно +13.1 +6.4 64 +12 +12 1021.7 1020.8
03 15.02 СЗ 2 10 км 5/0
[Ci fib]
+11.1 +6.2 72 +10 +10 1022.2 1021.4 +11.1
06 15.02 С 2 8000 м мгла 8/0
[Cs]
+15.5 +9.0 65 +15 +21 1023.1 1022.3
09 15.02 С 3 10 км 5/0
[Ac trans Ci fib]
+20.9 +8.2 44 +23 +31 комфорт 1023.3 1022.5
12 15.02 СЗ 2 10 км 8/0
[Cs]
+24.0 +3.3 26 +23 +27 комфорт 1021.3 1020.5
15 15.02 штиль 0 10 км 9/6 900 м
[Cb calv Ac As]
+21.5 +5.2 34 +22 +22 комфорт 1021.2 1020.4 +24.5
18 15.02 штиль 0 10 км 8/5 900 м
[Cb calv Ac As]
+20.1 +5.2 38 +21 +21 комфорт 1019.9 1019.1
21 15.02 С 3 10 км 8/5 900 м
[Cb calv Ac As]
+19.0 +7.1 46 +20 +20 1021.3 1020.5
00 16.02 СВ 4 10 км ясно +16.2 +8.3 59 +16 +16 1020.6 1019.8
03 16.02 С 3 7000 м мгла 8/0
[Ac trans Ci sp]
+15.8 +10.7 72 +15 +15 1020.9 1020.1 +15.7
06 16.02 СВ 4 5000 м мгла 10/0
[As trans]
+18.9 +13.7 72 +20 +22 1021.5 1020.7
09 16.02 В 4 5000 м мгла 8/0
[Cs]
+23.8 +14.8 57 +27 +33 жарко 1020.5 1019.6
12 16.02 ЮВ 4 5000 м мгла 10/3 1050 м
[Cb calv As op]
+26.0 +13.0 45 +28 +28 жарко 1018.3 1017.6
15 16.02 ЮВ 2 5000 м мгла 8/3 1200 м
[Sc Ac As]
+21.9 +14.9 64 +25 +25 комфорт 1017.5 1016.7 +27.4
18 16.02 ЮВ 1 7000 м дымка 9/4 1200 м
[Sc diur, vesp Ac As]
+19.4 +16.2 82 +22 +22 комфорт 1018.1 1017.2
21 16.02 ЮВ 3 7000 м мгла 9/3 1200 м
[Sc diur, vesp Ac As]
+19.6 +14.8 74 +22 +22 комфорт 1017.0 1016.2
00 17.02 В 3 10 км 6/3 1200 м
[Sc Ac As]
+19.3 +14.3 73 +21 +21 комфорт 1015.6 1014.8
03 17.02 ЮВ 4 6000 м мгла 6/3 1200 м
[Frnb Ac trans]
+19.4 +14.7 74 +21 +21 комфорт 1015.5 1014.7 +18.6
06 17.02 ЮВ 7 5000 м мгла 5/0
[Ci fib]
+22.2 +15.1 64 +26 +27 душно 1016.7 1015.8
09 17.02 Ю 9 6000 м мгла 8/0
[Cs]
+27.1 +14.8 47 +30 +31 душно 1015.0 1014.2
12 17.02 ЮВ 9 7000 м мгла 9/3 1200 м
[Sc As op]
+27.0 +14.3 46 +29 +29 жарко 1012.2 1011.4
15 17.02 ЮВ 4 8000 м мгла 10/6 900 м
[Cb calv As op]
+23.4 +14.4 57 +27 +27 душно 1011.4 1010.6 +28.6
18 17.02 ЮВ 6 10 км 10/6 900 м
[Cb calv As op]
+22.4 +13.0 55 +25 +25 комфорт 1011.2 1010.4
21 17.02 ЮВ 4 10 км 10/6 900 м
[Cb calv As op]
+22.2 +12.6 54 +25 +25 комфорт 1008.6 1007.8
00 18.02 ЮВ 8 10 км 10/6 900 м
[Cb calv As op]
+21.9 +13.0 57 +25 +25 комфорт 1007.2 1006.4
03 18.02 ЮВ 10 7000 м мгла 9/6 900 м
[Cb calv Ac As]
+22.2 +14.2 60 +25 +25 комфорт 1006.2 1005.4 +21.4
06 18.02 Ю 8 800 м пыльный позёмок 10/6 900 м
[Cb calv As op]
+23.6 +12.4 49 +25 +26 комфорт 1009.3 1008.5
09 18.02 СЗ 7 6000 м пыль {дождь, туман} 6/0
[Ac trans Ci sp]
+20.6 +12.5 60 +22 +25 комфорт 1012.2 1011.4
12 18.02 СЗ 6 7000 м пыль {туман} ясно +23.7 +4.1 28 +23 +25 комфорт 1012.0 1011.2 1
15 18.02 СЗ 2 10 км ясно +20.4 +4.3 35 +22 +22 комфорт 1012.7 1011.9 +24.1
18 18.02 штиль 0 10 км ясно +17.5 +4.9 43 +18 +18 1013.5 1012.7
21 18.02 штиль 0 8000 м мгла ясно +15.4 +10.5 73 +15 +15 1013.1 1012.3
00 19.02 З 2 8000 м мгла ясно +13.5 +9.0 74 +13 +13 1012.6 1011.7
03 19.02 штиль 0 6000 м мгла ясно +13.9 +8.5 70 +14 +14 1013.4 1012.6 +13.4
06 19.02 Ю 3 800 м пыль ясно +17.0 +6.2 49 +17 +22 1014.8 1014.0
09 19.02 З 6 2000 м пыль {туман} 4/0
[Ac trans]
+22.1 +5.9 35 +23 +26 комфорт 1014.3 1013.5
12 19.02 З 5 6000 м пыль {туман} 4/4 900 м
[Cb calv]
+23.1 +5.6 32 +23 +25 комфорт 1013.4 1012.6
15 19.02 СЗ 3 5000 м пыль 3/3 1200 м
[Sc]
+20.6 +7.1 42 +22 +22 комфорт 1014.6 1013.8 +24.3
18 19.02 З 3 10 км ясно +16.5 +6.9 53 +16 +16 1016.0 1015.2
21 19.02 СЗ 2 10 км ясно +14.1 +8.3 68 +14 +14 1016.3 1015.6
00 20.02 С 2 10 км ясно +11.9 +8.7 81 +11 +11 1016.3 1015.4
03 20.02 З 2 3000 м дымка ясно +10.1 +8.5 90 +9 +9 1016.8 1016.0 +10.1
06 20.02 З 2 1500 м пыль 1/0
[Ci fib]
+15.6 +10.6 72 +16 +22 1018.0 1017.2
09 20.02 З 2 8000 м пыль 3/0
[Ci fib]
+21.6 +7.0 39 +22 +34 комфорт 1017.2 1016.4
12 20.02 СЗ 3 10 км 9/0
[Ac trans]
+22.1 +5.9 35 +23 +25 комфорт 1015.1 1014.2
15 20.02 З 2 10 км 8/3 1200 м
[Sc Ac As]
+20.9 +6.0 38 +22 +22 комфорт 1014.7 1013.9 +22.4
18 20.02 СЗ 2 10 км 8/3 1200 м
[Sc diur, vesp Ac trans]
+18.0 +6.8 48 +19 +19 1015.5 1014.7

 

Местоположение метеостанции Abadan (Иран): широта 30.37 долгота 48.25 высота над уровнем моря 6 м.

В архиве по умолчанию представлена погода в Abadan за последнюю неделю. Архивные данные за месяц целиком и за предыдущие месяцы, начиная с января 2011 года, Вы можете получить, выбрав интересующий диапазон дат из раскрывающегося списка и нажав кнопку "Ввод!".

Внимание! Время в таблицах - всемирное. Для получения местного времени необходимо прибавить поправку, которая в Abadan равна 3.5 ч.

Смотрите также архив погоды в соседних городах и на ближайших метеорологических станциях:

Погода в Basrah Airport (Ирак) (48 км)
Погода в Fao (Ирак) (50 км)
Погода в Basrah (Ирак) (50 км)
Погода в Abdaly (Кувейт) (62 км)
Погода в Bubiyan (Кувейт) (68 км)
Погода в Sabriyah (Кувейт) (79 км)
Погода в Failaka Island (Кувейт) (100 км)
Погода в Mitribah (Кувейт) (104 км)
Погода в Jal Aliyah (Кувейт) (106 км)
Погода в Ahwaz (Иран) (114 км)

Пояснения к столбцам:

Ветер - указаны скорость ветра в м/с - средняя за 10 мин, порывы в срок и между сроками (в фигурных скобках) и направление, откуда дует ветер: С - северный, СВ - северо-восточный, В - восточный, ЮВ - юго-восточный, Ю - южный, ЮЗ - юго-западный, З - западный, СЗ - северо-западный.
Видимость - горизонтальная дальность видимости в метрах или километрах. При видимости от 1 до 10 км при отсутствии осадков обычно наблюдается дымка, при ухудшении видимости до 1 км и менее - туман. В сухую погоду видимость может ухудшаться дымом, пылью или мглою.
Явления - указаны атмосферные явления, наблюдавшиеся в срок или в последний час перед сроком; фигурными скобками обозначены явления, наблюдавшиеся между сроками (за 1-3 часа до срока); квадратными скобками обозначены град или гололедные отложения с указанием их диаметра в мм.
Облачность - указаны через наклонную черту общая и нижняя облачность в баллах и высота нижней границы облаков в метрах; квадратными скобками обозначены формы облаков: Ci - перистые, Cs - перисто-слоистые, Cc - перисто-кучевые, Ac - высококучевые, As - высокослоистые, Sc - слоисто-кучевые, Ns - слоисто-дождевые, Cu - кучевые, Cb - кучево-дождевые. Подробнее классификацию облаков см. в Атласе облаков (PDF).
T - Температура воздуха - температура, измеренная на высоте 2 м над землей.
Td - Температура точки росы - температура, при понижении до которой содержащийся в воздухе водяной пар достигнет насыщения.
f - Относительная влажность воздуха - влажноcть воздуха, измеренная на высоте 2 м над землей.
Te - Эффективная температура - температура, которую ощущает одетый по сезону человек в тени. Характеристика душности погоды. При расчете учитывается влияние влажности воздуха и скорости ветра на теплоощущения человека.
Tes - Эффективная температура на солнце - температура, которую ощущает человек, с поправкой на солнечный нагрев. Характеристика знойности погоды. Зависит от высоты солнца над горизонтом, облачности и скорости ветра. Ночью, в пасмурную погоду, а также при ветре 12 м/с и более поправка равна нулю.
P - Атмосферное давление - приведенное к уровню моря атмосферное давление.
Po - Атмосферное давление - измеренное на уровне метеостанции атмосферное давление.
Tmin - Минимальная температура - минимум температуры воздуха на высоте 2 м над землей.
Tmax - Максимальная температура - максимум температуры воздуха на высоте 2 м над землей.
R - Количество осадков - Количество выпавших осадков за период времени, мм. При наведении курсора мыши на число - период времени, за который выпало указанное количество осадков.
R24 - Количество осадков - Количество выпавших осадков за 24 часа, мм.
S - Снежный покров - Высота снежного покрова, см. При наведении курсора мыши на число - состояние снежного покрова и степень покрытия местности в баллах.